Other Public Products
Issued by NWS Grand Forks, ND

Home | Current Version | Previous Version | Graphics & Text | Print | Product List | Glossary On
Versions: 1 2 3 4 5 6 7 8 9 10 11 12 13 14 15 16 17 18 19 20 21 22 23 24 25 26 27 28 29 30 31 32 33 34 35 36 37 38 39 40 41 42 43 44 45 46 47 48 49 50
000
FPUS83 KFGF 200231
OPUFGF
PRAIRIE TO PINES WEATHER ROUNDUP
NATIONAL WEATHER SERVICE EASTERN NORTH DAKOTA/GRAND FORKS ND
900 PM CDT THU APR 19 2018

 **SATELLITE DATA USED TO AUGMENT SKY COVER AT AUTOMATED STATIONS**
 *****  WEATHER ACROSS EASTERN NORTH DAKOTA  *****

CITY           SKY/WX    TMP DP  RH WIND       PRES   REMARKS
GRAND FORKS    FAIR      40  35  83 SW7       30.37R
GRND FORKS AFB FAIR      40  33  76 SW7       30.36S
GRND FORKS NWS   N/A     44  36  73 SW5       30.34S
BUXTON           N/A     42  35  74 S2          N/A
DEVILS LAKE    FAIR      44  35  70 SW3       30.36S
FARGO          FAIR      46  31  55 NE5       30.38R
WAHPETON ARPT  MOCLDY    46  34  61 SW6       30.39R
$$

 *****  WEATHER ACROSS CENTRAL AND WESTERN NORTH DAKOTA  *****

CITY           SKY/WX    TMP DP  RH WIND       PRES   REMARKS
JAMESTOWN      FAIR      44  25  47 CALM      30.35R
BISMARCK       FAIR      45  35  68 E10       30.32S
MINOT          FAIR      40  34  79 S6        30.33S
MINOT AFB      FAIR      38  36  89 SW6       30.32S
GARRISON         N/A     38  34  85 NE6       30.31F
WILLISTON      FAIR      44  35  70 E9        30.28F
DICKINSON      FAIR      45  30  55 E9        30.23S
HETTINGER      FAIR      47  30  51 E13       30.25S
$$

 *****  OTHER OBSERVATIONS NORTHEAST NORTH DAKOTA  *****

CITY           SKY/WX    TMP DP  RH WIND       PRES   REMARKS
WALHALLA       FAIR      45  41  87 CALM      30.35S
LANGDON        FAIR      41  41 100 CALM      30.35S
CAVALIER         N/A     46  34  61 CALM      30.35R
GRAFTON        FAIR      41  34  75 S5        30.38R
CANDO          FAIR      41  41 100 CALM      30.37S
FORT TOTTEN      N/A     42  29  61 CALM      29.95S
ROLLA          FAIR      39  39 100 SW7       30.34S
RUGBY          FAIR      39  36  87 S7        30.34S
 ***** THE ABOVE OBSERVATIONS ARE NON NWS ARE NOT QUALITY
        CONTROLLED AND MAY MIS-REPORT RAIN FOR SNOW...
$$

 *****  OTHER OBSERVATIONS SOUTHEAST NORTH DAKOTA *****

CITY           SKY/WX    TMP DP  RH WIND       PRES   REMARKS
COOPERSTOWN    FAIR      39  34  81 SE8       30.38R
VALLEY CITY    FAIR      39  30  70 E3        30.39R
OAKES            N/A     43  34  70 S13       30.37R
GWINNER          N/A     43  36  75 S8        30.37R
SHEYENNE NWR     N/A     46  33  59 E3        29.95S
BUFFALO          N/A     38  32  76 N5          N/A
WYNDMERE       NOT AVBL
 ***** THE ABOVE OBSERVATIONS ARE NON NWS ARE NOT QUALITY
       CONTROLLED AND MAY MIS-REPORT RAIN FOR SNOW...
$$

  *****  WEATHER ACROSS NORTHERN MINNESOTA  *****

CITY           SKY/WX    TMP DP  RH WIND       PRES   REMARKS
FLAG ISLAND    FAIR      36  18  48 SE6       30.36S
WARROAD        FAIR      46  30  53 SW3       30.37S
ROSEAU         FAIR      46  30  53 SW5       30.36F
HALLOCK        FAIR      45  36  70 S10       30.36R
THF RVR FALLS  FAIR      45  31  58 CALM      30.38F
HALSTAD        NOT AVBL
FOSSTON        FAIR      37  23  56 CALM      30.39R
BAUDETTE       FAIR      43  23  45 CALM      30.36S
WASKISH        FAIR      36  19  51 CALM      30.37F
CROOKSTON      FAIR      43  37  81 CALM      30.39R
$$
  *****  WEATHER ACROSS CENTRAL AND WEST MINNESOTA  *****

CITY           SKY/WX    TMP DP  RH WIND       PRES   REMARKS
BEMIDJI        FAIR      40  20  44 CALM      30.37S
PARK RAPIDS    FAIR      43  27  53 S5        30.38S
WADENA         FAIR      39  28  65 CALM      30.40R
DETROIT LAKES  FAIR      45  28  53 CALM      30.40R HAZE
MOORHEAD       FAIR      45  30  57 CALM      30.39S
FERGUS FALLS   MOCLDY    45  36  70 S7        30.37R
ELBOW LAKE     CLOUDY    40  34  77 SE9       30.40S
MORRIS MN      FAIR      39  32  75 S7        30.40S
STAPLES        FAIR      39  27  60 CALM      30.40S
WHEATON        FAIR      45  32  61 S8        30.41S
$$
  *****  WEATHER ELSEWHERE ACROSS MINNESOTA  *****

CITY           SKY/WX    TMP DP  RH WIND       PRES   REMARKS
DULUTH         FAIR      47  16  29 W6        30.38R
INTRNTL FALLS  FAIR      38  18  44 CALM      30.37R
ELY            FAIR      36  14  41 CALM      30.37S
CLOQUET        FAIR      45   9  23 W5        30.39R
BRAINERD       FAIR      44  20  38 CALM      30.40F
HIBBING        FAIR      33  12  41 CALM      30.37S
ALEXANDRIA     FAIR      43  27  53 S8        30.41S
SAINT CLOUD    FAIR      40  31  70 S7        30.42S
MINNEAPOLIS    FAIR      45  24  43 W6        30.45S
$$

  *****  WEATHER ACROSS SOUTH DAKOTA  *****

CITY           SKY/WX    TMP DP  RH WIND       PRES   REMARKS
SIOUX FALLS    MOCLDY    37  29  72 E8        30.41F
BROOKINGS      FAIR      40  28  62 SE6       30.41S
WATERTOWN      FAIR      39  28  64 S5        30.38S
HURON          FAIR      39  28  64 SE5       30.38F
SISSETON         N/A     41  34  76 S6        30.38S
ABERDEEN       FAIR      41  29  62 S9        30.39R
MITCHELL       FAIR      37  28  70 SE10      30.39S
PIERRE         FAIR      41  29  62 SE12      30.32R
MOBRIDGE       FAIR      44  33  65 SE8       30.30R
RAPID CITY     FAIR      50  32  50 SE21      30.15S
$$

  *****  SOME WEATHER IN NEARBY STATES *****

CITY           SKY/WX    TMP DP  RH WIND       PRES   REMARKS
GLASGOW MT     FAIR      51  34  52 E24G31    30.15S
GREAT FALLS MT FAIR      54  30  40 NE10      30.04S
CHEYENNE WY    FAIR      49  21  33 SE23G31   30.02F
SCOTTSBLUFF NE FAIR      52  32  46 E22       30.07S
OMAHA NE       FAIR      50  27  40 E8        30.37S
DES MOINES IA  FAIR      47  26  44 NE8       30.43S
DAVENPORT IA   FAIR      39  26  59 NE7       30.46S
CHICAGO IL     FAIR      42  26  53 NW9       30.42R
EAU CLAIRE WI  FAIR      41  20  43 SW3       30.44R
LA CROSSE WI   FAIR      38  25  59 CALM      30.45S
$$

  *****  SOME NATIONAL WEATHER *****

CITY           SKY/WX    TMP DP  RH WIND       PRES   REMARKS
LA GUARDIA NY  FAIR      42  25  50 NW22G37   29.98R
RALEIGH NC     FAIR      48  29  47 VRB6      30.16R
ATLANTA GA     FAIR      53  34  48 NW13      30.17R
NEW ORLEANS LA MOCLDY    68  47  46 N13G20    30.18R
OKLAHOMA CITY  FAIR      56  33  42 E8        30.28R
ALBUQUERQUE NM MOCLDY    67  26  21 SE32G38   29.92F
SALT LAKE CITY MOCLDY    61  22  22 NW18      29.71F
LOS ANGELES CA FAIR      58  48  69 W17       30.01R
BOISE ID       FAIR      64  29  26 NW20G30   29.89R
SEATTLE WA     MOCLDY    59  36  42 W6        30.23F
$$

*** WEATHER ACROSS MANITOBA...SASKATCHEWAN AND ONTARIO ***
                ***ONTARIO***

CITY           SKY/WX    TMP DP  RH WIND       PRES   REMARKS
GERALDTON      PTCLDY    32  16  51 CALM      30.32R
THUNDER BAY    PTCLDY    34  27  75 E5        30.35S
SIOUX LOOKOUT  PTCLDY    34   9  35 S2        30.33S
TORONTO        PTCLDY    36  19  51 NW12      30.17R
BIG TROUT LK   CLEAR     37  23  56 NE3       30.34R
PICKLE LAKE    PTCLDY    50   9  18 CALM      30.29S
DRYDEN         CLEAR     46   9  21 SW7       30.34S
KENORA         PTCLDY    45  12  26 SW7       30.35S
$$
                *** MANITOBA***

CITY           SKY/WX    TMP DP  RH WIND       PRES   REMARKS
BRANDON        PTCLDY    39  32  75 N8        30.34F
DAUPHIN        CLEAR     45  32  61 E6        30.35S
ISLAND LAKE    NOT AVBL
PILOT MOUND      N/A     41  34  75 S3          N/A
THE PAS        PTCLDY    43  25  49 SE6       30.29F
THOMPSON       PTCLDY    45  16  31 S3        30.29S
WINNIPEG       PTCLDY    50  34  53 W6        30.35S
LYNN LAKE      CLEAR     46  23  39 S7        30.17F
CHURCHILL      MOCLDY    30  25  80 SE10      30.31S WCI  21
GILLAM         CLEAR     43  18  36 S6        30.33S
$$
                ***SASKATCHEWAN***

CITY           SKY/WX    TMP DP  RH WIND       PRES   REMARKS
ESTEVAN        PTCLDY    39  27  60 SE7       30.31F
KINDERSLEY     PTCLDY    46  37  71 SE16      30.10S
LLOYDMINSTER   CLEAR     43  34  70 SE10      30.09F
PRINCE ALBERT  PTCLDY    39  30  70 S8        30.25F
REGINA         MOCLDY    41  34  75 E12       30.30S
YORKTON        CLEAR     37  28  70 SE2       30.34S



USA.gov is the U.S. government's official web portal to all federal, state and local government web resources and services.